Location: Kaiser
(34.0939°N, 117.4889°W)
Time: 14:54:19
(UTC+00:00)

Daily predictions for brighter satellites

Satellite Brightness Start Highest point End
(mag) Time Altitude Azimuth Time Altitude Azimuth Time Altitude Azimuth
Cosmos 1092 Rocket 4.4 12:00:11 10° S 12:06:13 62° E 12:12:21 10° NNE
ERS-2 3.6 12:05:05 10° SE 12:08:25 35° ENE 12:10:47 17° NNE
Nadezhda 4 Rocket 3.8 12:02:54 10° SSW 12:08:59 73° W 12:15:08 10° N
CZ-4B R/B 3.6 12:06:15 10° SE 12:09:09 26° ENE 12:12:03 10° NNE
Cosmos 44 Rocket 3.6 12:10:28 56° SSW 12:10:28 56° SSW 12:14:53 10° SSE
Cosmos 2082 Rocket 2.0 12:09:55 65° WSW 12:10:28 70° WNW 12:16:05 10° NNE
Cosmos 2369 4.0 12:08:19 13° NNW 12:13:17 65° ENE 12:18:51 10° SSE
Meteor 1-31 Rocket 4.2 12:09:40 10° NNE 12:13:22 37° E 12:17:00 10° SSE
Meteor 1-24 Rocket 3.8 12:08:10 10° S 12:13:43 76° E 12:19:30 10° NNE
GOES 2 Rocket 4.1 12:16:02 40° SSW 12:17:21 48° S 12:23:41 10° ESE
DELTA 2 R/B (1) 3.8 12:19:26 46° SW 12:20:02 48° SSW 12:25:24 10° SE
Cosmos 1892 Rocket 3.9 12:16:59 10° S 12:21:16 65° E 12:25:35 10° NNE
Gblst 52 Del rocket 4.2 12:24:23 31° SW 12:27:10 83° SE 12:33:10 10° NE
ALOS 2.2 12:23:30 10° NNE 12:28:12 88° ESE 12:32:51 10° SSW
Cosmos 1697 Rocket 2.6 12:31:55 17° NNW 12:36:14 66° WSW 12:41:49 10° S
Abrixas rocket 4.2 12:38:21 16° N 12:39:00 17° NNE 12:40:59 10° ENE
FENGYUN 3A 3.6 12:37:33 10° N 12:42:57 67° WNW 12:48:19 10° SSW
ATLAS CENTAUR R/B 2.1 12:41:08 10° SSW 12:45:03 51° ESE 12:48:47 10° NE
ARGOS Delta rocket 4.2 12:40:48 10° NNE 12:46:18 85° E 12:51:45 10° S
ATLAS 3B R/B 3.4 12:44:55 27° WNW 12:46:38 30° NW 12:52:24 10° N
ADEOS Rocket 3.3 12:44:09 10° SSW 12:49:04 34° W 12:54:03 10° NNW
ADEOS 3.6 12:44:26 10° N 12:49:31 53° WNW 12:54:34 10° SSW
Meteor 2-5 Rocket 4.2 12:45:41 10° SW 12:50:52 37° WNW 12:56:12 10° N
Cosmos 1400 Rocket 2.6 12:47:32 10° N 12:51:28 86° W 12:55:19 10° S
Cosmos 1300 2.6 12:47:52 10° NNW 12:51:38 60° W 12:55:22 10° S
Cosmos 1428 Rocket 4.4 12:46:16 10° S 12:52:30 76° W 12:58:42 10° N
Aureole 3 4.1 12:52:49 10° N 12:57:33 86° E 13:03:36 10° S
Cosmos 1980 Rocket 2.1 12:54:05 10° NNW 12:59:41 82° WSW 13:05:17 10° SSE
CZ-4B R/B 4.1 12:59:05 10° N 13:02:59 44° WNW 13:06:41 10° SW
Cosmos 2228 3.7 13:00:48 10° NNW 13:04:43 33° W 13:08:39 10° SSW
Cosmos 1726 Rocket 3.8 13:00:39 10° NNW 13:04:56 47° W 13:09:11 10° SSW
Cosmos 2026 Rocket 4.1 12:59:30 10° SSW 13:05:43 56° W 13:11:59 10° N
Cosmos 1992 Rocket 4.2 13:01:04 10° NNW 13:06:03 47° WSW 13:11:01 10° S
Cosmos 614 Rocket 4.4 13:13:04 10° SW 13:17:51 38° WNW 13:22:37 10° N
Meteor PRIRODA 3.6 13:14:37 10° N 13:18:15 63° WNW 13:21:53 10° SSW
H-2A R/B 3.5 13:14:50 10° NNE 13:18:38 58° E 13:22:27 10° S
Meteor 2-10 Rocket 3.7 13:14:21 10° N 13:19:24 77° E 13:24:34 10° SSE
Cosmos 1484 Rocket 4.2 13:19:42 10° NNW 13:22:13 17° WNW 13:24:42 10° WSW
X-37B 3.5 13:20:42 10° S 13:22:55 18° SE 13:25:09 10° E
Cosmos 1689 Rocket 2.0 13:21:10 10° S 13:24:04 61° W 13:26:57 10° NNW
Cosmos 1315 Rocket 3.1 13:20:56 10° N 13:25:04 75° E 13:29:11 10° SSE
COSMO-SKYMED 1 2.6 13:22:13 10° S 13:26:30 64° WSW 13:30:49 10° NNW
Cosmos 676 Rocket 4.3 13:23:33 10° S 13:28:44 73° ESE 13:33:54 10° NNE
Uosat 12 SS-18 rocket 4.3 13:26:26 10° SW 13:31:17 52° WNW 13:35:37 10° NNE
Cosmos 2322 Rocket 3.6 13:27:19 10° N 13:32:37 39° ENE 13:37:51 10° SE
YAOGAN 6 4.0 13:29:07 10° NNE 13:32:38 43° E 13:36:05 10° S
Cosmos 2278 4.2 13:27:35 10° NW 13:32:46 38° WSW 13:37:56 10° S
Cosmos 1455 2.3 13:35:13 10° N 13:39:06 88° E 13:42:57 10° S
CZ-4B R/B 3.3 13:39:43 10° WSW 13:41:22 13° W 13:43:02 10° WNW
H-2A R/B 2.6 13:37:43 10° NNE 13:42:02 85° ESE 13:46:09 10° SSW
ERS-2 4.1 13:41:18 10° WSW 13:42:04 10° W 13:42:48 10° W
